(86265) = 1999 TT249

Discovered at Catalina on 1999-10-09 by CSS.

Orbit

Orbit type: Main Belt

Note: WebGL enabled browser required.

epoch2024-03-31.0
epoch JD2460400.5
perihelion date2024-03-24.45460
perihelion JD2460393.95460
argument of perihelion (°)276.84843
ascending node (°)216.03350
inclination (°)9.87264
eccentricity0.1066308
perihelion distance (AU)2.8482253
Tisserand w.r.t. Jupiter3.2
ΔV w.r.t. Earth (km/sec)10.9
semimajor axis (AU)3.1881838
mean anomaly (°)1.13325
mean daily motion (°/day)0.17313660
aphelion distance (AU)3.528
period (years)5.69
P-vector [x]-0.67184059
P-vector [y]0.72909884
P-vector [z]0.13055689
Q-vector [x]-0.73379636
Q-vector [y]-0.63115966
Q-vector [z]-0.25135709
absolute magnitude14.44
phase slope0.15
uncertainty0
referenceMPEC 2024-F07
observations used1544
oppositions20
arc length (days)8946
first opposition used1999
last opposition used2024
residual rms (arc-secs)0.59
perturbers coarse indicatorM-v
perturbers precise indicator003Ek
first observation date used1999-09-18.0
last observation date used2024-03-15.0
computer nameMPCLINUX
JD of orbit computation2456847.765678
perihelion JD uncertainty (days)1.2339E-04
argument of perihelion uncertainty (°)2.8984E-05
ascending node uncertainty (°)1.9578E-05
inclination uncertainty (°)4.6681E-06
eccentricity uncertainty 3.1395E-08
perihelion distance uncertainty (AU)9.2866E-08
Minimum Orbit Intersection Distances (in AU)
for orbit epoch: 2460400.5, reference: E2024-GH2
Mercury2.52031
Venus2.15286
Earth1.88458
Mars1.26432
Jupiter1.63703
Saturn6.02988
Uranus15.5371
Neptune26.5133

Observations

1554 total observations over interval: 1999 09 18.32211 – 2024 03 15.830377
These data are available for download (format description).

Date (UT) J2000 RA J2000 Dec Magn Location Ref
1999 09 18.32211 00 55 55.98 +12 41 08.3 18.7 R 703 – Catalina Sky Survey MPS 15446
1999 09 18.33478 00 55 55.59 +12 41 05.1 19.6 R 703 – Catalina Sky Survey MPS 15446
1999 09 18.34752 00 55 55.12 +12 41 01.3 19.3 R 703 – Catalina Sky Survey MPS 15446
1999 09 18.36019 00 55 54.68 +12 40 58.1 19.4 R 703 – Catalina Sky Survey MPS 15446
1999 10 09.23965 00 42 01.94 +10 35 57.3 18.4 R 703 – Catalina Sky Survey MPS 15446
1999 10 09.25167 00 42 01.33 +10 35 51.1 18.9 R 703 – Catalina Sky Survey MPS 15446
1999 10 09.26364 00 42 00.84 +10 35 45.8 18.8 R 703 – Catalina Sky Survey MPS 15446
1999 10 09.27554 00 42 00.33 +10 35 41.8 19.3 R 703 – Catalina Sky Survey MPS 15446
1999 10 10.19403 00 41 22.16 +10 29 25.9 18.8   704 – Lincoln Laboratory ETS, New Mexico MPS 15446
1999 10 10.20948 00 41 21.46 +10 29 20.6 19.1   704 – Lincoln Laboratory ETS, New Mexico MPS 15446
1999 10 10.22493 00 41 20.79 +10 29 13.3 18.8   704 – Lincoln Laboratory ETS, New Mexico MPS 15446
1999 10 10.24034 00 41 20.13 +10 29 07.8 18.8   704 – Lincoln Laboratory ETS, New Mexico MPS 15446
1999 10 10.25580 00 41 19.47 +10 29 01.1 19.5   704 – Lincoln Laboratory ETS, New Mexico MPS 15446
1999 10 19.18917 00 35 20.68 +09 27 08.5 17.9   704 – Lincoln Laboratory ETS, New Mexico MPS 15446
1999 10 19.20297 00 35 20.10 +09 27 02.9 17.8   704 – Lincoln Laboratory ETS, New Mexico MPS 15446
1999 10 19.21669 00 35 19.53 +09 26 58.0 18.2   704 – Lincoln Laboratory ETS, New Mexico MPS 15446
1999 10 19.23049 00 35 19.06 +09 26 51.0 18.1   704 – Lincoln Laboratory ETS, New Mexico MPS 15446
1999 10 19.24429 00 35 18.44 +09 26 45.9 18.0   704 – Lincoln Laboratory ETS, New Mexico MPS 15446
2000 11 27.37695 07 00 01.59 +11 24 14.9 18.2   704 – Lincoln Laboratory ETS, New Mexico MPS 35548
2000 11 27.39147 07 00 01.29 +11 24 11.4 18.1   704 – Lincoln Laboratory ETS, New Mexico MPS 35548
2000 11 27.40598 07 00 00.93 +11 24 07.5 18.1   704 – Lincoln Laboratory ETS, New Mexico MPS 35548
2000 11 27.42050 07 00 00.54 +11 24 04.3 18.1   704 – Lincoln Laboratory ETS, New Mexico MPS 35548
2000 11 27.44553 07 00 00.02 +11 23 57.7 18.6   704 – Lincoln Laboratory ETS, New Mexico MPS 43122
2000 11 27.46210 06 59 59.52 +11 23 54.0 19.1   704 – Lincoln Laboratory ETS, New Mexico MPS 43122
2000 11 27.47873 06 59 59.16 +11 23 49.6 18.9   704 – Lincoln Laboratory ETS, New Mexico MPS 43122
2000 11 27.49560 06 59 58.73 +11 23 45.5 18.3   704 – Lincoln Laboratory ETS, New Mexico MPS 43122
2000 11 27.51228 06 59 58.28 +11 23 41.4 18.9   704 – Lincoln Laboratory ETS, New Mexico MPS 43122
2000 12 28.30436 06 39 21.44 +09 59 07.3 18.7   704 – Lincoln Laboratory ETS, New Mexico MPS 35548
2000 12 28.33485 06 39 19.75 +09 59 06.5 18.5   704 – Lincoln Laboratory ETS, New Mexico MPS 35548
2000 12 28.35009 06 39 18.91 +09 59 04.6 18.6   704 – Lincoln Laboratory ETS, New Mexico MPS 35548
2000 12 28.36537 06 39 18.13 +09 59 04.3 18.5   704 – Lincoln Laboratory ETS, New Mexico MPS 35548
2001 01 21.26238 06 20 40.84 +10 04 03.6 18.0   704 – Lincoln Laboratory ETS, New Mexico MPS 35548
2001 01 21.27766 06 20 40.23 +10 04 05.9 17.6   704 – Lincoln Laboratory ETS, New Mexico MPS 35548
2001 01 21.29262 06 20 39.69 +10 04 07.1 17.4   704 – Lincoln Laboratory ETS, New Mexico MPS 35548
2001 01 21.30814 06 20 39.13 +10 04 08.7 16.8   704 – Lincoln Laboratory ETS, New Mexico MPS 35548
2002 03 16.38415 13 18 41.46 -14 16 09.5 18.7   704 – Lincoln Laboratory ETS, New Mexico MPS 51670
2002 03 16.39737 13 18 40.96 -14 16 05.5 19.0   704 – Lincoln Laboratory ETS, New Mexico MPS 51670
2002 03 16.41048 13 18 40.55 -14 16 02.4 19.2   704 – Lincoln Laboratory ETS, New Mexico MPS 51670
2002 03 16.42435 13 18 40.12 -14 15 57.9 18.9   704 – Lincoln Laboratory ETS, New Mexico MPS 51670
2002 03 16.43712 13 18 39.70 -14 15 53.3 18.9   704 – Lincoln Laboratory ETS, New Mexico MPS 51670
2002 03 23.43102 13 14 36.52 -13 38 32.4 20.1   608 – Haleakala-AMOS MPS 51670
2002 03 23.44187 13 14 36.12 -13 38 28.3 20.3   608 – Haleakala-AMOS MPS 51670
2002 03 23.45288 13 14 35.69 -13 38 24.3 20.2   608 – Haleakala-AMOS MPS 51670
2002 04 05.29355 13 05 56.83 -12 14 52.1 18.2 R 699 – Lowell Observatory-LONEOS MPS 54498
2002 04 05.30680 13 05 56.20 -12 14 46.2   699 – Lowell Observatory-LONEOS MPS 54498
2002 04 05.32046 13 05 55.61 -12 14 40.2   699 – Lowell Observatory-LONEOS MPS 54498
2002 04 05.33365 13 05 55.01 -12 14 34.1   699 – Lowell Observatory-LONEOS MPS 54498
2002 04 05.43356 13 05 50.68 -12 13 51.8 19.0   644 – Palomar Mountain/NEAT MPS 54498
2002 04 05.44404 13 05 50.22 -12 13 47.6 18.7   644 – Palomar Mountain/NEAT MPS 54498
2002 04 05.45511 13 05 49.75 -12 13 42.8 19.5   644 – Palomar Mountain/NEAT MPS 54498
2002 04 09.30458 13 03 07.62 -11 46 07.1 18.6   704 – Lincoln Laboratory ETS, New Mexico MPS 54498
2002 04 09.31627 13 03 07.13 -11 46 01.8 19.0   704 – Lincoln Laboratory ETS, New Mexico MPS 54498
2002 04 09.32806 13 03 06.61 -11 45 56.2 18.9   704 – Lincoln Laboratory ETS, New Mexico MPS 54498
2002 04 09.33973 13 03 06.11 -11 45 51.7 18.8   704 – Lincoln Laboratory ETS, New Mexico MPS 54498
2002 04 09.35141 13 03 05.59 -11 45 46.4 18.9   704 – Lincoln Laboratory ETS, New Mexico MPS 54498
2002 04 11.31238 13 01 43.54 -11 31 29.7 18.2   704 – Lincoln Laboratory ETS, New Mexico MPS 54498
2002 04 11.32400 13 01 43.06 -11 31 23.9 18.4   704 – Lincoln Laboratory ETS, New Mexico MPS 54498
2002 04 11.33545 13 01 42.58 -11 31 18.7 18.4   704 – Lincoln Laboratory ETS, New Mexico MPS 54498
2002 04 12.31687 13 01 01.83 -11 24 08.0 18.0   704 – Lincoln Laboratory ETS, New Mexico MPS 54498
2002 04 12.34450 13 01 00.65 -11 23 56.0 18.3   704 – Lincoln Laboratory ETS, New Mexico MPS 54498
2002 04 12.35822 13 01 00.03 -11 23 48.7 18.9   704 – Lincoln Laboratory ETS, New Mexico MPS 54498
2002 04 12.37195 13 00 59.45 -11 23 43.6 18.3   704 – Lincoln Laboratory ETS, New Mexico MPS 54498
2002 05 04.20220 12 48 17.49 -08 50 36.7 18.9 R 699 – Lowell Observatory-LONEOS MPS 54382
2002 05 04.21652 12 48 17.08 -08 50 31.6   699 – Lowell Observatory-LONEOS MPS 54382
2002 05 04.23086 12 48 16.71 -08 50 25.3   699 – Lowell Observatory-LONEOS MPS 54382
2002 05 04.24527 12 48 16.41 -08 50 20.9   699 – Lowell Observatory-LONEOS MPS 54382
2002 05 08.20989 12 46 42.95 -08 26 28.2 19.0   704 – Lincoln Laboratory ETS, New Mexico MPS 54382
2002 05 08.22216 12 46 42.65 -08 26 23.6 19.5   704 – Lincoln Laboratory ETS, New Mexico MPS 54382
2002 05 08.24622 12 46 42.11 -08 26 15.4 19.3   704 – Lincoln Laboratory ETS, New Mexico MPS 54382
2002 05 11.14731 12 45 44.97 -08 09 59.1 19.0   704 – Lincoln Laboratory ETS, New Mexico MPS 54382
2002 05 11.16202 12 45 44.67 -08 09 54.4 18.6   704 – Lincoln Laboratory ETS, New Mexico MPS 54382
2002 05 11.17808 12 45 44.37 -08 09 48.7 18.9   704 – Lincoln Laboratory ETS, New Mexico MPS 54382
2002 05 11.19280 12 45 44.06 -08 09 43.8 19.0   704 – Lincoln Laboratory ETS, New Mexico MPS 54382
2002 05 11.20759 12 45 43.79 -08 09 38.8 18.8   704 – Lincoln Laboratory ETS, New Mexico MPS 54382
2002 05 13.14417 12 45 11.28 -07 59 23.7 19.2   704 – Lincoln Laboratory ETS, New Mexico MPS 54382
2002 05 13.15889 12 45 10.97 -07 59 20.0 19.1   704 – Lincoln Laboratory ETS, New Mexico MPS 54382
2002 05 13.17362 12 45 10.75 -07 59 14.9 19.5   704 – Lincoln Laboratory ETS, New Mexico MPS 54382
2002 05 13.18834 12 45 10.50 -07 59 10.5 19.8   704 – Lincoln Laboratory ETS, New Mexico MPS 54382
2004 05 23.43584 22 09 51.83 -00 40 35.2 21.0 V 291 – LPL/Spacewatch II MPS 111761
2004 05 23.44756 22 09 52.18 -00 40 31.5 21.5 V 291 – LPL/Spacewatch II MPS 111761
2004 05 23.45463 22 09 52.39 -00 40 29.3 21.5 V 291 – LPL/Spacewatch II MPS 111761
2004 07 11.42512 22 15 53.94 +02 01 57.8 19.8   644 – Palomar Mountain/NEAT MPS 111761
2004 07 11.43494 22 15 53.73 +02 01 58.5 19.5   644 – Palomar Mountain/NEAT MPS 111761
2004 07 11.44877 22 15 53.49 +02 01 58.8 19.7   644 – Palomar Mountain/NEAT MPS 111761
2004 08 05.36251 22 04 04.58 +01 35 57.4 19.2   644 – Palomar Mountain/NEAT MPS 110799
2004 08 05.38351 22 04 03.78 +01 35 53.7 19.2   644 – Palomar Mountain/NEAT MPS 110799
2004 08 05.41866 22 04 02.39 +01 35 48.1 19.4   644 – Palomar Mountain/NEAT MPS 110799
